Tracking 35275 objects as of 8-Sep-2026
HD Live streaming from Space Station
objects crossing your sky now

STARLINK-35017

Track STARLINK-35017 now!
10-day predictions
STARLINK-35017 is classified as:


NORAD ID: 65292
Int'l Code: 2025-184V
Launch date: August 22, 2025
Source: United States (US)
Launch site: AIR FORCE WESTERN TEST RANGE (AFWTR)
Your satellite tracking list
Your tracking list is empty




NASA's NSSDC Master Catalog

Two Line Element Set (TLE):
1 65292U 25184V   26250.88005387  .00015951  00000-0  49509-3 0  9999
2 65292  97.2838 299.0815 0001105  92.5814 267.5555 15.33463096 58742
Source of the keplerian elements: AFSPC